Location: Goettingen
(51.5300°N, 9.9433°E)
Time: 07:11:13
(UTC+01:00)

ISS - Pass Details

Date: 26 November 2021
Orbit: 417 x 422 km, 51.6° (Epoch: 04 December)

Event Time Altitude Azimuth Distance (km) Brightness Sun altitude
Rises 17:48:58 0° 249° (WSW) 2,373 2.1 -13.5°
Reaches altitude 10° 17:51:04 10° 247° (WSW) 1,509 0.5 -13.9°
Maximum altitude 17:54:26 69° 164° (SSE) 457 -3.7 -14.4°
Enters shadow 17:55:57 30° 88° (E) 790 -2.9 -14.6°
